Location: D�pe
(52.6057°N, 8.1808°E)
Time: 01:01:19
(UTC+00:00)

NOSS 3-4 (C) - Pass Details

Date: 29 October 2020
Orbit: 886 x 1326 km, 63.4° (Epoch: 06 November)

Event Time Altitude Azimuth Distance (km) Brightness Sun altitude
Rises 17:51:48 0° 311° (NW) 3,737 7.3 -17.1°
Reaches altitude 10° 17:54:18 10° 314° (NW) 2,841 6.6 -17.5°
Maximum altitude 18:01:04 73° 39° (NE) 1,171 3.7 -18.5°
Enters shadow 18:05:43 25° 120° (ESE) 2,169 4.8 -19.2°
